Weather in Aki-Yurt

Russia / Republic of Ingushetia     43°30′27″N   44°51′42″E
temp.,
°C
wind,
m/s
gust,
m/s
humid.,
%
clouds,
%
prec.,
mm/h
press.,
hPa
HPBL,
m
17 may, mon
mon1700:00+18sw225717 0.0 100414
03:00+17s115020 0.0 100411
06:00+18s21505 0.0 100512
09:00+24e23420 0.0 1004344
12:00+28ene44395 0.0 1004701
15:00+28nne23375 0.0 10031173
18:00+23w71360100 0.0 1005393
21:00+17sw3885100 0.6 1005173
18 may, tue
tue1800:00+16w5129234 0.9 1007505
03:00+16wnw71490100 1.2 1008689
06:00+15wnw61193100 1.1 1010630
09:00+18wnw5778100 1.2 1010963
12:00+17wnw577453 0.1 1012927
15:00+19w4565100 0.2 10121081
18:00+18w1275100 0.1 1012253
21:00+14sw11875 0.1 101311
19 may, wed
wed1900:00+13ssw11835 0.0 101211
03:00+13s21811 0.0 101111
06:00+15sse11756 0.0 101050
09:00+20nne225833 0.0 1009554
12:00+22nnw445418 0.0 10101436
15:00+14nw7129795 2.1 1014532
18:00+14nw2593100 0.9 1016411
21:00+14ssw119295 0.9 101826
20 may, thu
thu2000:00+13ssw22921 0.0 101818
03:00+11se11890 0.0 101810
06:00+13ese23880 0.0 1019108
09:00+17ese456921 0.0 10191100
12:00+20e55540 0.0 10171271
15:00+21e55480 0.0 10171370
18:00+19e46610 0.0 1018240
21:00+15se33690 0.0 101835
21 may, fri
fri2100:00+14se22730 0.0 101720
03:00+13sse22740 0.0 101711
06:00+15se25710 0.0 1018154
09:00+21e58510 0.0 1017790
12:00+24e67430 0.0 10161122
15:00+25e67410 0.0 10151331
18:00+22e49565 0.0 1015281
21:00+15se36640 0.0 101687